Powrót do katalogu

OPTUS B3 PKM

AktywnyGTO
NORAD 23229·ROCKET BODY·🇦🇺 Australia

Wystrzelony Aug 27, 1994 z Xichang Satellite Launch Center

Loading…

TLE

Starzejące sięSource: Space-Track

Epoka: Sep 14, 2026, 08:57 UTC

1 23229U 94055C   26257.37335031  .00000526  00000-0  17776-2 0  9991
2 23229  24.0959 345.8206 7342489 171.8224 215.6812  2.13878588246185

Śledź OPTUS B3 PKM w czasie rzeczywistym z AllMySat

Download on the App Store